Flag for Ecuador Weather past 2 weeks in Quito, Ecuador

Now
54 °F

Passing clouds.


Feels Like: 51 °F
Forecast: 48 / 63 °F
Wind: 9 mph from Southwest

Location: Latacunga Airport

Current Time: Jan 31, 2015 at 1:09:41 AM

Latest Report: Jan 31, 2015 at 12:00 AM


Visibility: N/A

Pressure: 30.39 "Hg

Humidity: 88%

Dew point: 50 °F

Location of QuitoLocation

Historic Weather in Quito — Graph

°F

Quito temperature yesterday

Maximum temperature yesterday: 64 °F (at 2:00 PM)
Minimum temperature yesterday: 52 °F (at 7:00 AM)
Average temperature yesterday: 57 °F

Past Weeks' High & Low Weather Summary

 TemperatureHumidityPressure
High73 °F (Jan 16, 3:00 PM)100% (Jan 17, 1:00 AM)30.51 "Hg (Jan 17, 1:00 AM)
Low46 °F (Jan 22, 4:00 AM)43% (Jan 27, 1:00 PM)30.24 "Hg (Jan 25, 4:00 PM)
Average55 °F87%30.40 "Hg
* Reported Midnight between Jan 15 and Jan 16 — Midnight between Jan 30 and Jan 31, Quito, Weather by CustomWeather, © 2014

Note: Actual official high and low records may vary slightly from our data, if they occured in-between our weather recording intervals... More about our weather records

Advertising

Quito weather history for previous 24 hours

 ConditionsComfort  
Time TempWeatherWind HumidityBarometerVisibility
12:00 AM
Jan 31
54 °FPassing clouds.9 mph88%30.39 "HgN/A
11:00 PM
Jan 30
54 °FPassing clouds.15 mph94%30.42 "HgN/A
10:00 PM54 °FPassing clouds.10 mph88%30.39 "HgN/A
9:00 PM54 °FPassing clouds.9 mph88%30.39 "HgN/A
8:00 PM54 °FCool.6 mph88%30.36 "HgN/A
7:00 PM55 °FPassing clouds.9 mph82%30.33 "HgN/A
6:00 PM57 °FPartly sunny.15 mph77%30.30 "HgN/A
4:00 PM59 °FScattered showers. Partly sunny.16 mph77%30.30 "HgN/A
3:00 PM63 °FScattered showers. Partly sunny.20 mph73%30.30 "HgN/A
2:00 PM64 °FBroken clouds.21 mph64%30.33 "HgN/A
1:00 PM63 °FBroken clouds.16 mph68%30.36 "HgN/A
12:00 PM59 °FLight rain. Broken clouds.17 mph82%30.39 "HgN/A
11:00 AM59 °FPartly sunny.14 mph72%30.42 "HgN/A
10:00 AM55 °FPartly sunny.9 mph77%30.42 "HgN/A
9:00 AM54 °FBroken clouds.12 mph82%30.42 "HgN/A
7:00 AM52 °FPartly sunny.8 mph94%30.39 "HgN/A
Weather by CustomWeather, © 2014

See weather overviewHow to use our weather pages